,,,PA_Meas_PMT16A,,PR_Meas_QMR101_102,,RH_Meas_QMH101,,SR_Meas_QMS101,,TA_Meas_QMH101,,GenWind,,GenWind,
date,time,status,PA,status,PR,status,RH,status,SR,status,TA,status,DirAvg,status,SpdAvg,
2010-12-30, 00:00:04,VALID,999.313,VALID,0,VALID,89.6633,VALID,0,VALID,24.48,VALID,20,VALID,0.0515625,
2010-12-30, 00:01:04,VALID,999.319,VALID,0,VALID,89.6862,VALID,0,VALID,24.5209,VALID,20,VALID,0.155859,
2010-12-30, 00:02:04,VALID,999.314,VALID,0,VALID,89.7091,VALID,0,VALID,24.4995,VALID,20,VALID,0.4125,
2010-12-30, 00:03:04,VALID,999.297,VALID,0,VALID,89.6709,VALID,0,VALID,24.4995,VALID,20,VALID,0.339844,
2010-12-30, 00:04:04,VALID,999.302,VALID,0,VALID,89.7625,VALID,0,VALID,24.519,VALID,20,VALID,0.230078,
2010-12-30, 00:05:04,VALID,999.223,VALID,0,VALID,89.8388,VALID,0,VALID,24.558,VALID,20,VALID,0.119922,
2010-12-30, 00:06:04,VALID,999.21,VALID,0,VALID,89.8006,VALID,0,VALID,24.558,VALID,20,VALID,0.034375,
2010-12-30, 00:07:04,VALID,999.21,VALID,0,VALID,89.6023,VALID,0,VALID,24.5385,VALID,20,VALID,0,
2010-12-30, 00:08:04,VALID,999.174,VALID,0,VALID,89.4115,VALID,0,VALID,24.5404,VALID,20,VALID,0,
2010-12-30, 00:09:04,VALID,999.189,VALID,0,VALID,89.2971,VALID,0,VALID,24.5385,VALID,20,VALID,0,
2010-12-30, 00:10:04,VALID,999.15,VALID,0,VALID,89.2132,VALID,0,VALID,24.519,VALID,20,VALID,0,
2010-12-30, 00:11:04,VALID,999.113,VALID,0,VALID,89.1979,VALID,0,VALID,24.5385,VALID,20,VALID,0.0785156,
2010-12-30, 00:12:04,VALID,999.09,VALID,0,VALID,89.381,VALID,0,VALID,24.5385,VALID,20,VALID,0.374609,
2010-12-30, 00:13:04,VALID,999.084,VALID,0,VALID,89.4039,VALID,0,VALID,24.5599,VALID,20,VALID,0.513672,
2010-12-30, 00:14:04,VALID,999.032,VALID,0,VALID,89.442,VALID,0,VALID,24.558,VALID,20,VALID,0.454688,
2010-12-30, 00:15:04,VALID,999.024,VALID,0,VALID,89.4802,VALID,0,VALID,24.5794,VALID,56,VALID,0.657422,
2010-12-30, 00:16:04,VALID,999.014,VALID,0,VALID,89.5641,VALID,0,VALID,24.558,VALID,82,VALID,0.908203,
2010-12-30, 00:17:04,VALID,999.041,VALID,0,VALID,89.5489,VALID,0,VALID,24.5385,VALID,82,VALID,0.594531,
2010-12-30, 00:18:04,VALID,999.063,VALID,0,VALID,89.6099,VALID,0,VALID,24.5599,VALID,82,VALID,0.273438,
2010-12-30, 00:19:04,VALID,999.035,VALID,0,VALID,89.7014,VALID,0,VALID,24.558,VALID,82,VALID,0.0421875,
2010-12-30, 00:20:04,VALID,999.019,VALID,0,VALID,89.8083,VALID,0,VALID,24.558,VALID,82,VALID,0,
2010-12-30, 00:21:04,VALID,999.026,VALID,0,VALID,89.8769,VALID,0,VALID,24.558,VALID,82,VALID,0,
2010-12-30, 00:22:04,VALID,999.016,VALID,0,VALID,89.9456,VALID,0,VALID,24.5794,VALID,82,VALID,0,
2010-12-30, 00:23:04,VALID,999.023,VALID,0,VALID,90.0066,VALID,0,VALID,24.5794,VALID,82,VALID,0,
2010-12-30, 00:24:04,VALID,998.959,VALID,0,VALID,90.1668,VALID,0,VALID,24.5775,VALID,82,VALID,0.0578125,
2010-12-30, 00:25:04,VALID,998.974,VALID,0,VALID,90.266,VALID,0,VALID,24.5775,VALID,82,VALID,0.021875,
2010-12-30, 00:26:04,VALID,998.963,VALID,0,VALID,90.2737,VALID,0,VALID,24.558,VALID,85,VALID,0.628906,
2010-12-30, 00:27:04,VALID,998.975,VALID,0,VALID,90.2355,VALID,0,VALID,24.558,VALID,104,VALID,0.874609,
2010-12-30, 00:28:04,VALID,998.92,VALID,0,VALID,90.2889,VALID,0,VALID,24.558,VALID,111,VALID,0.691016,
2010-12-30, 00:29:04,VALID,998.903,VALID,0,VALID,90.3194,VALID,0,VALID,24.558,VALID,109,VALID,0.863672,
2010-12-30, 00:30:04,VALID,998.869,VALID,0,VALID,90.2508,VALID,0,VALID,24.558,VALID,107,VALID,1.02188,
2010-12-30, 00:31:04,VALID,998.817,VALID,0,VALID,90.1592,VALID,0,VALID,24.5794,VALID,94,VALID,0.99375,
2010-12-30, 00:32:04,VALID,998.783,VALID,0,VALID,90.1974,VALID,0,VALID,24.5989,VALID,92,VALID,1.05977,
2010-12-30, 00:33:04,VALID,998.745,VALID,0,VALID,90.3042,VALID,0,VALID,24.5989,VALID,98,VALID,1.08203,
2010-12-30, 00:34:04,VALID,998.72,VALID,0,VALID,90.1745,VALID,0,VALID,24.558,VALID,86,VALID,0.884766,
2010-12-30, 00:35:04,VALID,998.687,VALID,0,VALID,90.1134,VALID,0,VALID,24.5989,VALID,86,VALID,0.6875,
2010-12-30, 00:36:04,VALID,998.661,VALID,0,VALID,90.0753,VALID,0,VALID,24.5971,VALID,51,VALID,0.925,
2010-12-30, 00:37:04,VALID,998.646,VALID,0,VALID,89.8235,VALID,0,VALID,24.5775,VALID,54,VALID,0.838281,
2010-12-30, 00:38:04,VALID,998.631,VALID,0,VALID,89.7243,VALID,0,VALID,24.5971,VALID,53,VALID,0.633984,
2010-12-30, 00:39:04,VALID,998.592,VALID,0,VALID,89.6404,VALID,0,VALID,24.5971,VALID,53,VALID,0.725391,
2010-12-30, 00:40:04,VALID,998.596,VALID,0,VALID,89.5031,VALID,0,VALID,24.5775,VALID,53,VALID,0.465234,
2010-12-30, 00:41:04,VALID,998.568,VALID,0,VALID,89.4649,VALID,0,VALID,24.6184,VALID,53,VALID,0.55625,
2010-12-30, 00:42:04,VALID,998.541,VALID,0,VALID,89.5107,VALID,0,VALID,24.5989,VALID,343,VALID,0.775781,
2010-12-30, 00:43:04,VALID,998.544,VALID,0,VALID,89.6099,VALID,0,VALID,24.5971,VALID,343,VALID,0.554688,
2010-12-30, 00:44:04,VALID,998.512,VALID,0,VALID,89.7625,VALID,0,VALID,24.5971,VALID,343,VALID,0.610547,
2010-12-30, 00:45:04,VALID,998.481,VALID,0,VALID,89.8769,VALID,0,VALID,24.6184,VALID,343,VALID,0.542578,
2010-12-30, 00:46:04,VALID,998.445,VALID,0,VALID,90.0448,VALID,0,VALID,24.5971,VALID,343,VALID,0.236328,
2010-12-30, 00:47:04,VALID,998.433,VALID,0,VALID,90.1134,VALID,0,VALID,24.5971,VALID,343,VALID,0.300391,
2010-12-30, 00:48:04,VALID,998.422,VALID,0,VALID,90.06,VALID,0,VALID,24.558,VALID,343,VALID,0.652734,
2010-12-30, 00:49:04,VALID,998.432,VALID,0,VALID,90.0982,VALID,0,VALID,24.558,VALID,343,VALID,0.616016,
2010-12-30, 00:50:04,VALID,998.46,VALID,0,VALID,90.1821,VALID,0,VALID,24.5385,VALID,343,VALID,0.395312,
2010-12-30, 00:51:04,VALID,998.411,VALID,0,VALID,90.1668,VALID,0,VALID,24.519,VALID,343,VALID,0.0429688,
2010-12-30, 00:52:04,VALID,998.411,VALID,0,VALID,90.2126,VALID,0,VALID,24.519,VALID,343,VALID,0.200391,
2010-12-30, 00:53:04,VALID,998.438,VALID,0,VALID,90.3194,VALID,0,VALID,24.519,VALID,343,VALID,0.00195313,
2010-12-30, 00:54:04,VALID,998.409,VALID,0,VALID,90.411,VALID,0,VALID,24.519,VALID,259,VALID,0.455078,
2010-12-30, 00:55:04,VALID,998.382,VALID,0,VALID,90.4491,VALID,0,VALID,24.5209,VALID,305,VALID,0.287109,
2010-12-30, 00:56:04,VALID,998.392,VALID,0,VALID,90.3271,VALID,0,VALID,24.4995,VALID,91,VALID,0.770312,
2010-12-30, 00:57:04,VALID,998.397,VALID,0,VALID,90.2813,VALID,0,VALID,24.519,VALID,91,VALID,0.290234,
2010-12-30, 00:58:04,VALID,998.394,VALID,0,VALID,90.2966,VALID,0,VALID,24.519,VALID,272,VALID,0.753906,
2010-12-30, 00:59:04,VALID,998.419,VALID,0,VALID,90.144,VALID,0,VALID,24.4995,VALID,291,VALID,0.545313,
2010-12-30, 01:00:04,VALID,998.409,VALID,0,VALID,89.9761,VALID,0,VALID,24.4995,VALID,256,VALID,0.705859,
2010-12-30, 01:01:04,VALID,998.407,VALID,0,VALID,89.8388,VALID,0,VALID,24.519,VALID,235,VALID,0.221094,
2010-12-30, 01:02:04,VALID,998.434,VALID,0,VALID,89.8769,VALID,0,VALID,24.5385,VALID,235,VALID,0.193359,
2010-12-30, 01:03:04,VALID,998.428,VALID,0,VALID,89.5183,VALID,0,VALID,24.4995,VALID,360,VALID,0.899219,
2010-12-30, 01:04:04,VALID,998.411,VALID,0,VALID,89.2818,VALID,0,VALID,24.4995,VALID,328,VALID,0.573047,
2010-12-30, 01:05:04,VALID,998.393,VALID,0,VALID,89.1826,VALID,0,VALID,24.48,VALID,281,VALID,0.296875,
2010-12-30, 01:06:04,VALID,998.369,VALID,0,VALID,89.175,VALID,0,VALID,24.5209,VALID,281,VALID,0.065625,
2010-12-30, 01:07:04,VALID,998.34,VALID,0,VALID,89.2055,VALID,0,VALID,24.4586,VALID,281,VALID,0.0738281,
2010-12-30, 01:08:04,VALID,998.342,VALID,0.5,VALID,89.1979,VALID,0,VALID,24.4604,VALID,281,VALID,0.372266,
2010-12-30, 01:09:04,VALID,998.349,VALID,0,VALID,89.236,VALID,0,VALID,24.4604,VALID,281,VALID,0.349219,
2010-12-30, 01:10:04,VALID,998.32,VALID,0,VALID,89.32,VALID,0,VALID,24.4409,VALID,281,VALID,0.234766,
2010-12-30, 01:11:04,VALID,998.354,VALID,0,VALID,89.3963,VALID,0,VALID,24.4409,VALID,281,VALID,0.289453,
2010-12-30, 01:12:04,VALID,998.329,VALID,0,VALID,89.3581,VALID,0,VALID,24.4214,VALID,281,VALID,0.369922,
2010-12-30, 01:13:04,VALID,998.318,VALID,0,VALID,89.4039,VALID,0,VALID,24.4214,VALID,281,VALID,0.653125,
2010-12-30, 01:14:04,VALID,998.33,VALID,0,VALID,89.5641,VALID,0,VALID,24.4019,VALID,281,VALID,0.603125,
2010-12-30, 01:15:04,VALID,998.322,VALID,0,VALID,89.6404,VALID,0,VALID,24.3824,VALID,281,VALID,0.464063,
2010-12-30, 01:16:04,VALID,998.392,VALID,0,VALID,89.9151,VALID,0,VALID,24.4037,VALID,316,VALID,1.01133,
2010-12-30, 01:17:04,VALID,998.388,VALID,0,VALID,90.2126,VALID,0,VALID,24.3824,VALID,331,VALID,0.871484,
2010-12-30, 01:18:04,VALID,998.415,VALID,0,VALID,90.3042,VALID,0,VALID,24.3629,VALID,331,VALID,0.742578,
2010-12-30, 01:19:04,VALID,998.428,VALID,0,VALID,90.4186,VALID,0,VALID,24.3433,VALID,331,VALID,0.511719,
2010-12-30, 01:20:04,VALID,998.403,VALID,0,VALID,90.5102,VALID,0,VALID,24.3433,VALID,334,VALID,0.546484,
2010-12-30, 01:21:04,VALID,998.411,VALID,0,VALID,90.5483,VALID,0,VALID,24.3025,VALID,11,VALID,0.948047,
2010-12-30, 01:22:04,VALID,998.405,VALID,0,VALID,90.617,VALID,0,VALID,24.3043,VALID,10,VALID,0.792578,
2010-12-30, 01:23:04,VALID,998.446,VALID,0.5,VALID,90.617,VALID,0,VALID,24.3043,VALID,10,VALID,0.507813,
2010-12-30, 01:24:04,VALID,998.44,VALID,0,VALID,90.6628,VALID,0,VALID,24.2848,VALID,10,VALID,0.291016,
2010-12-30, 01:25:04,VALID,998.459,VALID,0,VALID,90.7314,VALID,0,VALID,24.2848,VALID,10,VALID,0.0269531,
2010-12-30, 01:26:04,VALID,998.522,VALID,0,VALID,90.7925,VALID,0,VALID,24.2848,VALID,10,VALID,0.0203125,
2010-12-30, 01:27:04,VALID,998.504,VALID,0,VALID,90.8611,VALID,0,VALID,24.2848,VALID,225,VALID,0.791406,
2010-12-30, 01:28:04,VALID,998.508,VALID,0,VALID,90.7696,VALID,0,VALID,24.2848,VALID,204,VALID,0.579687,
2010-12-30, 01:29:04,VALID,998.501,VALID,0,VALID,90.678,VALID,0,VALID,24.3238,VALID,204,VALID,0.0328125,
2010-12-30, 01:30:04,VALID,998.499,VALID,0,VALID,90.617,VALID,0,VALID,24.3433,VALID,231,VALID,0.519141,
2010-12-30, 01:31:04,VALID,998.449,VALID,0,VALID,90.556,VALID,0,VALID,24.3629,VALID,302,VALID,1.18242,
2010-12-30, 01:32:04,VALID,998.448,VALID,0,VALID,90.35,VALID,0,VALID,24.3433,VALID,336,VALID,0.466406,
2010-12-30, 01:33:04,VALID,998.449,VALID,0,VALID,90.1516,VALID,0.112286,VALID,24.3629,VALID,314,VALID,0.766797,
2010-12-30, 01:34:04,VALID,998.453,VALID,0,VALID,90.0829,VALID,0.112286,VALID,24.3824,VALID,248,VALID,0.830859,
2010-12-30, 01:35:04,VALID,998.478,VALID,0,VALID,89.999,VALID,0,VALID,24.3824,VALID,283,VALID,0.395312,
2010-12-30, 01:36:04,VALID,998.52,VALID,0,VALID,89.9914,VALID,0,VALID,24.3824,VALID,339,VALID,0.601563,
2010-12-30, 01:37:04,VALID,998.528,VALID,0,VALID,90.0143,VALID,0,VALID,24.3824,VALID,340,VALID,0.0148437,
2010-12-30, 01:38:04,VALID,998.52,VALID,0,VALID,90.06,VALID,0,VALID,24.3629,VALID,352,VALID,0.01875,
2010-12-30, 01:39:04,VALID,998.528,VALID,0,VALID,90.1134,VALID,0,VALID,24.3629,VALID,100,VALID,0.346875,
2010-12-30, 01:40:04,VALID,998.579,VALID,0,VALID,90.1821,VALID,0,VALID,24.3433,VALID,100,VALID,0,
2010-12-30, 01:41:04,VALID,998.574,VALID,0,VALID,90.2813,VALID,0,VALID,24.3433,VALID,100,VALID,0,
2010-12-30, 01:42:04,VALID,998.628,VALID,0.5,VALID,90.4034,VALID,0,VALID,24.3433,VALID,198,VALID,0.740234,
2010-12-30, 01:43:04,VALID,998.61,VALID,0,VALID,90.5407,VALID,0,VALID,24.3433,VALID,221,VALID,1.06055,
2010-12-30, 01:44:04,VALID,998.607,VALID,0,VALID,90.5788,VALID,0,VALID,24.3433,VALID,221,VALID,0.732422,
2010-12-30, 01:45:04,VALID,998.584,VALID,0,VALID,90.5636,VALID,0,VALID,24.3452,VALID,212,VALID,1.02422,
2010-12-30, 01:46:04,VALID,998.602,VALID,0,VALID,90.5102,VALID,0,VALID,24.3238,VALID,217,VALID,0.848047,
2010-12-30, 01:47:04,VALID,998.601,VALID,0,VALID,90.4797,VALID,0,VALID,24.3043,VALID,224,VALID,0.960938,
2010-12-30, 01:48:04,VALID,998.578,VALID,0,VALID,90.3957,VALID,0,VALID,24.3062,VALID,209,VALID,0.717969,
2010-12-30, 01:49:04,VALID,998.564,VALID,0,VALID,90.4034,VALID,0,VALID,24.2458,VALID,168,VALID,0.557422,
2010-12-30, 01:50:04,VALID,998.573,VALID,0.5,VALID,90.4644,VALID,0,VALID,24.2263,VALID,189,VALID,0.316406,
2010-12-30, 01:51:04,VALID,998.553,VALID,0,VALID,90.4797,VALID,0,VALID,24.1872,VALID,190,VALID,0.541016,
2010-12-30, 01:52:04,VALID,998.556,VALID,0,VALID,90.5636,VALID,0,VALID,24.1872,VALID,275,VALID,0.976563,
2010-12-30, 01:53:04,VALID,998.558,VALID,0,VALID,90.6399,VALID,0,VALID,24.1269,VALID,249,VALID,1.44844,
2010-12-30, 01:54:04,VALID,998.586,VALID,0.5,VALID,90.6704,VALID,0,VALID,24.1287,VALID,228,VALID,1.11133,
2010-12-30, 01:55:04,VALID,998.558,VALID,0,VALID,90.6857,VALID,0,VALID,24.0701,VALID,231,VALID,0.746484,
2010-12-30, 01:56:04,VALID,998.556,VALID,0,VALID,90.8306,VALID,0,VALID,24.0701,VALID,265,VALID,0.624609,
2010-12-30, 01:57:04,VALID,998.591,VALID,0,VALID,90.9146,VALID,0,VALID,24.0311,VALID,266,VALID,0.298047,
2010-12-30, 01:58:04,VALID,998.558,VALID,0,VALID,91.029,VALID,0,VALID,24.0329,VALID,227,VALID,0.739844,
2010-12-30, 01:59:04,VALID,998.584,VALID,0,VALID,91.0595,VALID,0,VALID,23.9726,VALID,248,VALID,1.00586,
2010-12-30, 02:00:04,VALID,998.548,VALID,0.5,VALID,90.9985,VALID,0,VALID,23.9939,VALID,236,VALID,0.753125,
2010-12-30, 02:01:04,VALID,998.571,VALID,0,VALID,90.9909,VALID,0,VALID,23.9531,VALID,252,VALID,0.971875,
2010-12-30, 02:02:04,VALID,998.549,VALID,0,VALID,91.0366,VALID,0,VALID,23.9531,VALID,218,VALID,0.903906,
2010-12-30, 02:03:04,VALID,998.546,VALID,0,VALID,91.1053,VALID,0,VALID,23.9336,VALID,243,VALID,1.21797,
2010-12-30, 02:04:04,VALID,998.535,VALID,0,VALID,91.0443,VALID,0,VALID,23.8945,VALID,262,VALID,0.813672,
2010-12-30, 02:05:04,VALID,998.521,VALID,0,VALID,91.0519,VALID,0,VALID,23.8945,VALID,232,VALID,0.71875,
2010-12-30, 02:06:04,VALID,998.516,VALID,0,VALID,91.0748,VALID,0,VALID,23.8963,VALID,233,VALID,1.17031,
2010-12-30, 02:07:04,VALID,998.5,VALID,0.5,VALID,91.1282,VALID,0,VALID,23.8768,VALID,230,VALID,0.783594,
2010-12-30, 02:08:04,VALID,998.45,VALID,0,VALID,91.1434,VALID,0,VALID,23.8573,VALID,247,VALID,1.13242,
2010-12-30, 02:09:04,VALID,998.453,VALID,0,VALID,91.2045,VALID,0,VALID,23.8573,VALID,233,VALID,1.2875,
2010-12-30, 02:10:04,VALID,998.428,VALID,0,VALID,91.2503,VALID,0.112286,VALID,23.836,VALID,244,VALID,1.39219,
2010-12-30, 02:11:04,VALID,998.416,VALID,0,VALID,91.2655,VALID,0,VALID,23.8378,VALID,216,VALID,0.815234,
2010-12-30, 02:12:04,VALID,998.392,VALID,0.5,VALID,91.3189,VALID,0,VALID,23.797,VALID,214,VALID,0.420703,
2010-12-30, 02:13:04,VALID,998.376,VALID,0,VALID,91.4105,VALID,0,VALID,23.797,VALID,217,VALID,0.398047,
2010-12-30, 02:14:04,VALID,998.306,VALID,0,VALID,91.4715,VALID,0,VALID,23.7793,VALID,244,VALID,0.751562,
2010-12-30, 02:15:04,VALID,998.345,VALID,0.5,VALID,91.5554,VALID,0,VALID,23.7793,VALID,215,VALID,0.736719,
2010-12-30, 02:16:04,VALID,998.342,VALID,0,VALID,91.6317,VALID,0,VALID,23.7189,VALID,245,VALID,1.4293,
2010-12-30, 02:17:04,VALID,998.318,VALID,0,VALID,91.6699,VALID,0,VALID,23.7384,VALID,243,VALID,0.675,
2010-12-30, 02:18:04,VALID,998.312,VALID,0,VALID,91.7538,VALID,0,VALID,23.7402,VALID,256,VALID,0.958594,
2010-12-30, 02:19:04,VALID,998.297,VALID,0.5,VALID,91.8148,VALID,0,VALID,23.742,VALID,234,VALID,0.912109,
2010-12-30, 02:20:04,VALID,998.308,VALID,0,VALID,91.8835,VALID,0,VALID,23.7207,VALID,242,VALID,1.43359,
2010-12-30, 02:21:04,VALID,998.322,VALID,0,VALID,91.914,VALID,0,VALID,23.742,VALID,232,VALID,1.13164,
2010-12-30, 02:22:04,VALID,998.341,VALID,0,VALID,91.9674,VALID,0,VALID,23.7402,VALID,238,VALID,0.875391,
2010-12-30, 02:23:04,VALID,998.332,VALID,0,VALID,92.0361,VALID,0,VALID,23.7616,VALID,212,VALID,0.890234,
2010-12-30, 02:24:04,VALID,998.365,VALID,0.5,VALID,92.0743,VALID,0,VALID,23.7616,VALID,227,VALID,1.35273,
2010-12-30, 02:25:04,VALID,998.369,VALID,0,VALID,92.0895,VALID,0,VALID,23.7616,VALID,231,VALID,0.960938,
2010-12-30, 02:26:04,VALID,998.396,VALID,0,VALID,92.1429,VALID,0,VALID,23.7597,VALID,231,VALID,1.71367,
2010-12-30, 02:27:04,VALID,998.454,VALID,0.5,VALID,92.1887,VALID,0,VALID,23.7384,VALID,216,VALID,0.979297,
2010-12-30, 02:28:04,VALID,998.442,VALID,0,VALID,92.2192,VALID,0,VALID,23.7189,VALID,211,VALID,1.5,
2010-12-30, 02:29:04,VALID,998.458,VALID,0.5,VALID,92.2574,VALID,0,VALID,23.7207,VALID,213,VALID,0.848828,
2010-12-30, 02:30:04,VALID,998.441,VALID,0,VALID,92.3031,VALID,0,VALID,23.7189,VALID,211,VALID,0.629297,
2010-12-30, 02:31:04,VALID,998.482,VALID,0,VALID,92.3337,VALID,0,VALID,23.6994,VALID,228,VALID,0.803516,
2010-12-30, 02:32:04,VALID,998.483,VALID,0,VALID,92.3642,VALID,0,VALID,23.6799,VALID,198,VALID,1.30273,
2010-12-30, 02:33:04,VALID,998.463,VALID,0.5,VALID,92.4023,VALID,0,VALID,23.6604,VALID,190,VALID,1.07148,
2010-12-30, 02:34:04,VALID,998.443,VALID,0,VALID,92.41,VALID,0,VALID,23.6604,VALID,185,VALID,0.366797,
2010-12-30, 02:35:04,VALID,998.459,VALID,0.5,VALID,92.4405,VALID,0,VALID,23.6604,VALID,218,VALID,0.56875,
2010-12-30, 02:36:04,VALID,998.43,VALID,0,VALID,92.4786,VALID,0,VALID,23.6817,VALID,212,VALID,1.03359,
2010-12-30, 02:37:04,VALID,998.437,VALID,0.5,VALID,92.5015,VALID,0,VALID,23.6817,VALID,235,VALID,0.754297,
2010-12-30, 02:38:04,VALID,998.423,VALID,0,VALID,92.5168,VALID,0,VALID,23.7012,VALID,234,VALID,0.734766,
2010-12-30, 02:39:04,VALID,998.387,VALID,0.5,VALID,92.5626,VALID,0,VALID,23.6622,VALID,254,VALID,1.34687,
2010-12-30, 02:40:04,VALID,998.385,VALID,0,VALID,92.5778,VALID,0,VALID,23.6232,VALID,260,VALID,1.04258,
2010-12-30, 02:41:04,VALID,998.405,VALID,0.5,VALID,92.5931,VALID,0,VALID,23.6019,VALID,236,VALID,0.935547,
2010-12-30, 02:42:04,VALID,998.38,VALID,0,VALID,92.616,VALID,0,VALID,23.5628,VALID,231,VALID,1.35117,
2010-12-30, 02:43:04,VALID,998.356,VALID,0,VALID,92.6236,VALID,0,VALID,23.5433,VALID,224,VALID,2.06289,
2010-12-30, 02:44:04,VALID,998.367,VALID,0.5,VALID,92.616,VALID,0,VALID,23.5238,VALID,232,VALID,1.13359,
2010-12-30, 02:45:04,VALID,998.302,VALID,0,VALID,92.6312,VALID,0,VALID,23.5043,VALID,216,VALID,2.15859,
2010-12-30, 02:46:04,VALID,998.307,VALID,0,VALID,92.6388,VALID,0.112286,VALID,23.5043,VALID,238,VALID,1.19648,
2010-12-30, 02:47:04,VALID,998.268,VALID,0,VALID,92.6312,VALID,0,VALID,23.4848,VALID,253,VALID,0.483984,
2010-12-30, 02:48:04,VALID,998.286,VALID,0,VALID,92.6465,VALID,0,VALID,23.4848,VALID,230,VALID,1.06914,
2010-12-30, 02:49:04,VALID,998.27,VALID,0.5,VALID,92.6694,VALID,0,VALID,23.4653,VALID,236,VALID,1.10078,
2010-12-30, 02:50:04,VALID,998.255,VALID,0,VALID,92.6694,VALID,0.112286,VALID,23.4653,VALID,224,VALID,0.962109,
2010-12-30, 02:51:04,VALID,998.239,VALID,0,VALID,92.677,VALID,0,VALID,23.4866,VALID,212,VALID,1.2957,
2010-12-30, 02:52:04,VALID,998.26,VALID,0,VALID,92.6999,VALID,0,VALID,23.4263,VALID,225,VALID,1.64219,
2010-12-30, 02:53:04,VALID,998.264,VALID,0,VALID,92.7075,VALID,0,VALID,23.4263,VALID,188,VALID,1.50117,
2010-12-30, 02:54:04,VALID,998.293,VALID,0.5,VALID,92.6999,VALID,0,VALID,23.3872,VALID,193,VALID,1.61445,
2010-12-30, 02:55:04,VALID,998.273,VALID,0,VALID,92.7075,VALID,0,VALID,23.3677,VALID,192,VALID,2.36797,
2010-12-30, 02:56:04,VALID,998.279,VALID,0,VALID,92.7304,VALID,0,VALID,23.3287,VALID,206,VALID,1.56641,
2010-12-30, 02:57:04,VALID,998.27,VALID,0,VALID,92.7075,VALID,0,VALID,23.3092,VALID,218,VALID,0.796875,
2010-12-30, 02:58:04,VALID,998.244,VALID,0,VALID,92.6923,VALID,0,VALID,23.2702,VALID,202,VALID,0.862891,
2010-12-30, 02:59:04,VALID,998.208,VALID,0,VALID,92.7075,VALID,0,VALID,23.2702,VALID,221,VALID,0.997266,
2010-12-30, 03:00:04,VALID,998.209,VALID,0,VALID,92.6999,VALID,0,VALID,23.2507,VALID,210,VALID,1.21836,
2010-12-30, 03:01:04,VALID,998.191,VALID,0.5,VALID,92.6694,VALID,0.112286,VALID,23.2312,VALID,217,VALID,1.24883,
2010-12-30, 03:02:04,VALID,998.17,VALID,0,VALID,92.6694,VALID,0,VALID,23.2117,VALID,205,VALID,1.1793,
2010-12-30, 03:03:04,VALID,998.131,VALID,0,VALID,92.6541,VALID,0.112286,VALID,23.1726,VALID,228,VALID,1.20547,
2010-12-30, 03:04:04,VALID,998.144,VALID,0,VALID,92.6541,VALID,0,VALID,23.1726,VALID,212,VALID,0.783203,
2010-12-30, 03:05:04,VALID,998.186,VALID,0,VALID,92.6541,VALID,0.112286,VALID,23.1531,VALID,205,VALID,0.770312,
2010-12-30, 03:06:04,VALID,998.208,VALID,0,VALID,92.6541,VALID,0,VALID,23.1531,VALID,200,VALID,0.448828,
2010-12-30, 03:07:04,VALID,998.224,VALID,0.5,VALID,92.6388,VALID,0.112286,VALID,23.1336,VALID,191,VALID,0.717969,
2010-12-30, 03:08:04,VALID,998.275,VALID,0,VALID,92.6388,VALID,0,VALID,23.1141,VALID,191,VALID,0.698047,
2010-12-30, 03:09:04,VALID,998.283,VALID,0,VALID,92.677,VALID,0,VALID,23.0946,VALID,191,VALID,1.04805,
2010-12-30, 03:10:04,VALID,998.291,VALID,0,VALID,92.6617,VALID,0.112286,VALID,23.0946,VALID,183,VALID,0.516797,
2010-12-30, 03:11:04,VALID,998.296,VALID,0,VALID,92.6694,VALID,0,VALID,23.1141,VALID,166,VALID,0.839453,
2010-12-30, 03:12:04,VALID,998.254,VALID,0,VALID,92.6846,VALID,0,VALID,23.1141,VALID,164,VALID,0.907031,
2010-12-30, 03:13:04,VALID,998.276,VALID,0,VALID,92.6846,VALID,0,VALID,23.1141,VALID,196,VALID,0.575391,
2010-12-30, 03:14:04,VALID,998.227,VALID,0,VALID,92.6923,VALID,0,VALID,23.1141,VALID,185,VALID,0.511719,
2010-12-30, 03:15:04,VALID,998.24,VALID,0.5,VALID,92.6846,VALID,0,VALID,23.1336,VALID,185,VALID,0.278906,
2010-12-30, 03:16:04,VALID,998.202,VALID,0,VALID,92.7151,VALID,0,VALID,23.1336,VALID,185,VALID,0.670703,
2010-12-30, 03:17:04,VALID,998.2,VALID,0,VALID,92.7304,VALID,0.112286,VALID,23.1336,VALID,194,VALID,0.352734,
2010-12-30, 03:18:04,VALID,998.203,VALID,0,VALID,92.738,VALID,0.112286,VALID,23.1336,VALID,194,VALID,0.599609,
2010-12-30, 03:19:04,VALID,998.194,VALID,0,VALID,92.7609,VALID,0.112286,VALID,23.1531,VALID,213,VALID,0.775781,
2010-12-30, 03:20:04,VALID,998.182,VALID,0,VALID,92.7609,VALID,0,VALID,23.1336,VALID,185,VALID,1.1668,
2010-12-30, 03:21:04,VALID,998.196,VALID,0,VALID,92.7609,VALID,0,VALID,23.1141,VALID,183,VALID,0.878906,
2010-12-30, 03:22:04,VALID,998.221,VALID,0,VALID,92.7762,VALID,0,VALID,23.1319,VALID,179,VALID,1.30078,
2010-12-30, 03:23:04,VALID,998.176,VALID,0,VALID,92.7685,VALID,0,VALID,23.1336,VALID,185,VALID,0.828906,
2010-12-30, 03:24:04,VALID,998.177,VALID,0,VALID,92.7762,VALID,0,VALID,23.1531,VALID,180,VALID,1.11914,
2010-12-30, 03:25:04,VALID,998.183,VALID,0,VALID,92.7991,VALID,0.112286,VALID,23.1531,VALID,181,VALID,0.848828,
2010-12-30, 03:26:04,VALID,998.127,VALID,0,VALID,92.7991,VALID,0,VALID,23.1531,VALID,182,VALID,1.00312,
2010-12-30, 03:27:04,VALID,998.125,VALID,0,VALID,92.7914,VALID,0,VALID,23.1726,VALID,173,VALID,1.02383,
2010-12-30, 03:28:04,VALID,998.113,VALID,0,VALID,92.7991,VALID,0.112286,VALID,23.1726,VALID,174,VALID,0.614453,
2010-12-30, 03:29:04,VALID,998.099,VALID,0,VALID,92.7991,VALID,0.112286,VALID,23.1921,VALID,251,VALID,0.798047,
2010-12-30, 03:30:04,VALID,998.062,VALID,0,VALID,92.8143,VALID,0,VALID,23.1921,VALID,245,VALID,0.708594,
2010-12-30, 03:31:04,VALID,998.073,VALID,0,VALID,92.8143,VALID,0,VALID,23.1726,VALID,246,VALID,0.640234,
2010-12-30, 03:32:04,VALID,998.096,VALID,0,VALID,92.8296,VALID,0,VALID,23.1921,VALID,205,VALID,0.813281,
2010-12-30, 03:33:04,VALID,998.113,VALID,0,VALID,92.8372,VALID,0.112286,VALID,23.1921,VALID,201,VALID,0.558594,
2010-12-30, 03:34:04,VALID,998.133,VALID,0.5,VALID,92.822,VALID,0,VALID,23.1726,VALID,178,VALID,1.07969,
2010-12-30, 03:35:04,VALID,998.176,VALID,0,VALID,92.8372,VALID,0.112286,VALID,23.1921,VALID,168,VALID,1.31719,
2010-12-30, 03:36:04,VALID,998.237,VALID,0,VALID,92.8372,VALID,0,VALID,23.1921,VALID,166,VALID,1.2125,
2010-12-30, 03:37:04,VALID,998.21,VALID,0,VALID,92.8372,VALID,0,VALID,23.2117,VALID,159,VALID,0.990234,
2010-12-30, 03:38:04,VALID,998.205,VALID,0,VALID,92.822,VALID,0,VALID,23.2312,VALID,155,VALID,1.2832,
2010-12-30, 03:39:04,VALID,998.209,VALID,0,VALID,92.8296,VALID,0,VALID,23.2524,VALID,155,VALID,1.41211,
2010-12-30, 03:40:04,VALID,998.213,VALID,0,VALID,92.8448,VALID,0,VALID,23.2312,VALID,164,VALID,1.20586,
2010-12-30, 03:41:04,VALID,998.239,VALID,0,VALID,92.8372,VALID,0,VALID,23.2134,VALID,158,VALID,1.27539,
2010-12-30, 03:42:04,VALID,998.244,VALID,0,VALID,92.8143,VALID,0,VALID,23.2134,VALID,150,VALID,0.99375,
2010-12-30, 03:43:04,VALID,998.22,VALID,0,VALID,92.8067,VALID,0,VALID,23.2152,VALID,149,VALID,0.920313,
2010-12-30, 03:44:04,VALID,998.205,VALID,0,VALID,92.8296,VALID,0,VALID,23.2347,VALID,143,VALID,0.882422,